Location: Praha
(50.0830°N, 14.4670°E)
Time: 14:57:10
(UTC+01:00)

ISS - Pass Details

Date: 18 March 2023
Orbit: 414 x 423 km, 51.6° (Epoch: 21 March)

Event Time Altitude Azimuth Distance (km) Brightness Sun altitude
Rises 20:13:19 0° 245° (WSW) 2,351 0.6 -19.8°
Reaches altitude 10° 20:15:24 10° 243° (WSW) 1,489 -0.5 -20.1°
Enters shadow 20:18:09 55° 219° (SW) 508 -3.4 -20.5°
